Location: Grange Rosano
(44.4500°N, 6.9667°E)
Time: 15:46:57
(UTC+00:00)

ADEOS II - Pass Details

Date: 05 October 2022
Orbit: 799 x 799 km, 98.6° (Epoch: 30 November)

Event Time Altitude Azimuth Distance (km) Brightness Sun altitude
Rises 02:38:30 0° 5° (N) 3,319 5.7 -31.3°
Reaches altitude 10° 02:41:02 10° 356° (N) 2,385 4.8 -30.9°
Enters shadow 02:42:42 19° 344° (NNW) 1,843 4.0 -30.6°
